Weather History for Show Low, AZ

Change the Weather History Date:

Saturday, August 24, 2013

  Actual Average Record
Temperature  
Mean Temperature 63 °F -  
Max Temperature 71 °F 79 °F 91 °F (1985)
Min Temperature 55 °F 60 °F 37 °F (1968)
Degree Days  
Heating Degree Days 2    
Growing Degree Days 13 (Base 50)    
Moisture  
Dew Point 55 °F    
Average Humidity 81    
Maximum Humidity 94    
Minimum Humidity 52    
Precipitation  
Precipitation 0.01 in - - ()
Sea Level Pressure  
Sea Level Pressure 30.26 in    
Wind  
Wind Speed 5 mph (SE)    
Max Wind Speed 16 mph    
Max Gust Speed 29 mph    
Visibility 6 miles    
Events Rain , Thunderstorm    
Averages and records for this station are not official NWS values.
T = Trace of Precipitation, MM = Missing Value Source: NWS Daily Summary

Daily Weather History Graph

Daily Weather History Graph

Search for Another Location

Airport:

Trip Planner

Search our weather history database for the weather conditions in past years. The results will help you decide how hot, cold, wet, or windy it might be!

Date:

Astronomy

Aug. 24, 2013 Rise Set
Actual Time 5:47 AM MST 6:56 PM MST
Civil Twilight 5:21 AM MST 7:21 PM MST
Nautical Twilight 4:51 AM MST 7:52 PM MST
Astronomical Twilight 4:18 AM MST 8:24 PM MST
Moon 9:06 PM MST (8/24) 9:37 AM MST (8/24)
Length of Visible Light 14h 00m
Length of Day
13h 08m
Waning Gibbous, 83% of the Moon is Illuminated
Aug 24
Waning Gibbous
Aug 28
Last Quarter
Sep 5
New
Sep 12
First Quarter
Sep 19
Full

Hourly Weather History & Observations

Time (MST) Temp. Dew Point Humidity Pressure Visibility Wind Dir Wind Speed Gust Speed Precip Events Conditions
12:15 AM 62.6 °F 48.2 °F 59% 30.23 in 8.0 mi SSW 5.8 mph - N/A   Overcast
12:35 AM 62.6 °F 48.2 °F 59% 30.24 in 8.0 mi SSW 3.5 mph - N/A   Overcast
12:55 AM 62.6 °F 48.2 °F 59% 30.25 in 7.0 mi Calm Calm - N/A Rain Light Rain
1:15 AM 59.0 °F 50.0 °F 72% 30.25 in 3.0 mi Calm Calm - 0.01 in Rain Light Rain
1:35 AM 59.0 °F 53.6 °F 82% 30.26 in 5.0 mi SW 8.1 mph - 0.01 in Rain Light Rain
2:15 AM 57.2 °F 53.6 °F 88% 30.26 in 8.0 mi South 5.8 mph - N/A   Overcast
2:35 AM 57.2 °F 53.6 °F 88% 30.27 in 7.0 mi SSE 6.9 mph - N/A Rain Light Rain
2:55 AM 57.2 °F 51.8 °F 82% 30.26 in 5.0 mi SSE 6.9 mph - N/A Rain Light Rain
3:15 AM 57.2 °F 53.6 °F 88% 30.26 in 7.0 mi South 6.9 mph - N/A Rain Light Rain
3:35 AM 57.2 °F 53.6 °F 88% 30.26 in 8.0 mi South 5.8 mph - N/A   Partly Cloudy
3:55 AM 57.2 °F 53.6 °F 88% 30.27 in 7.0 mi Calm Calm - N/A Rain Light Rain
4:15 AM 57.2 °F 53.6 °F 88% 30.27 in 8.0 mi South 4.6 mph - N/A   Partly Cloudy
4:35 AM 55.4 °F 53.6 °F 94% 30.27 in 4.0 mi SSE 8.1 mph - N/A Rain Light Rain
4:55 AM 55.4 °F 53.6 °F 94% 30.27 in 4.0 mi SE 4.6 mph - N/A Rain Light Rain
5:15 AM 55.4 °F 53.6 °F 94% 30.27 in 4.0 mi Calm Calm - N/A Rain Light Rain
6:55 AM 55.4 °F 51.8 °F 88% 30.28 in 3.0 mi Calm Calm - N/A Rain Light Rain
7:15 AM 55.4 °F 53.6 °F 94% 30.27 in 4.0 mi East 3.5 mph - N/A Rain Light Rain
7:35 AM 55.4 °F 53.6 °F 94% 30.26 in 5.0 mi East 5.8 mph - N/A   Partly Cloudy
8:15 AM 57.2 °F 53.6 °F 88% 30.26 in 6.0 mi East 5.8 mph - N/A   Mostly Cloudy
8:35 AM 59.0 °F 53.6 °F 82% 30.27 in 7.0 mi East 5.8 mph - N/A   Overcast
9:15 AM 60.8 °F 55.4 °F 82% 30.27 in 8.0 mi ENE 5.8 mph - N/A   Mostly Cloudy
9:35 AM 62.6 °F 53.6 °F 72% 30.27 in 7.0 mi East 11.5 mph - N/A   Unknown
9:55 AM 62.6 °F 53.6 °F 72% 30.28 in 7.0 mi East 9.2 mph - N/A   Unknown
10:15 AM 64.4 °F 53.6 °F 68% 30.28 in 7.0 mi East 8.1 mph - N/A   Mostly Cloudy
10:35 AM 66.2 °F 53.6 °F 64% 30.28 in 7.0 mi East 6.9 mph - N/A   Scattered Clouds
10:55 AM 68.0 °F 53.6 °F 60% 30.27 in 7.0 mi ENE 5.8 mph - N/A   Scattered Clouds
11:15 AM 66.2 °F 53.6 °F 64% 30.27 in 7.0 mi NW 4.6 mph - N/A   Mostly Cloudy
11:35 AM 68.0 °F 53.6 °F 60% 30.26 in 6.0 mi North 3.5 mph - N/A   Haze
11:55 AM 68.0 °F 50.0 °F 52% 30.26 in 6.0 mi West 6.9 mph - N/A   Haze
12:15 PM 68.0 °F 50.0 °F 52% 30.26 in 7.0 mi SW 6.9 mph - N/A   Mostly Cloudy
12:35 PM 69.8 °F 51.8 °F 53% 30.25 in 7.0 mi SSW 4.6 mph - N/A   Mostly Cloudy
12:55 PM 71.6 °F 53.6 °F 53% 30.25 in 6.0 mi West 5.8 mph - N/A   Haze
1:15 PM 64.4 °F 59.0 °F 83% 30.25 in 1.5 mi SSW 5.8 mph - N/A Rain , Thunderstorm Light Rain
1:35 PM 66.2 °F 59.0 °F 78% 30.25 in 6.0 mi NE 15.0 mph - N/A Thunderstorm Haze
1:55 PM 64.4 °F 57.2 °F 77% 30.24 in 7.0 mi ENE 13.8 mph 20.7 mph N/A   Mostly Cloudy
2:15 PM 62.6 °F 57.2 °F 82% 30.23 in 7.0 mi NE 8.1 mph - N/A   Overcast
2:35 PM 62.6 °F 59.0 °F 88% 30.22 in 5.0 mi ENE 8.1 mph - N/A   Overcast
2:55 PM 64.4 °F 55.4 °F 73% 30.21 in 6.0 mi ENE 6.9 mph - N/A Thunderstorm Haze
3:15 PM 59.0 °F 55.4 °F 88% 30.23 in 0.2 mi SE 9.2 mph 28.8 mph N/A Rain Heavy Rain
3:35 PM 59.0 °F 55.4 °F 88% 30.21 in 5.0 mi NE 6.9 mph - N/A   Overcast
3:55 PM 60.8 °F 55.4 °F 82% 30.22 in 7.0 mi ENE 4.6 mph - N/A Rain Light Rain
4:15 PM 60.8 °F 55.4 °F 82% 30.22 in 4.0 mi ENE 4.6 mph - N/A Rain Light Rain
4:35 PM 60.8 °F 57.2 °F 88% 30.21 in 6.0 mi Calm Calm - N/A   Mostly Cloudy
4:55 PM 60.8 °F 57.2 °F 88% 30.22 in 7.0 mi Calm Calm - N/A   Mostly Cloudy
5:15 PM 62.6 °F 57.2 °F 82% 30.23 in 5.0 mi WSW 8.1 mph - N/A Rain Light Rain
5:35 PM 60.8 °F 57.2 °F 88% 30.23 in 4.0 mi WNW 4.6 mph - N/A Rain Light Rain
5:55 PM 60.8 °F 57.2 °F 88% 30.22 in 7.0 mi Calm Calm - N/A   Mostly Cloudy
6:15 PM 62.6 °F 57.2 °F 82% 30.24 in 7.0 mi Calm Calm - N/A   Mostly Cloudy
6:35 PM 60.8 °F 57.2 °F 88% 30.24 in 5.0 mi South 3.5 mph - N/A   Partly Cloudy
6:55 PM 60.8 °F 59.0 °F 94% 30.25 in 5.0 mi Calm Calm - N/A   Partly Cloudy
7:15 PM 60.8 °F 59.0 °F 94% 30.25 in 8.0 mi SE 3.5 mph - N/A   Mostly Cloudy
7:35 PM 60.8 °F 57.2 °F 88% 30.25 in 8.0 mi SSE 4.6 mph - N/A   Mostly Cloudy
7:55 PM 60.8 °F 57.2 °F 88% 30.26 in 8.0 mi SSE 3.5 mph - N/A   Mostly Cloudy
8:15 PM 60.8 °F 57.2 °F 88% 30.27 in 7.0 mi South 5.8 mph - N/A   Mostly Cloudy
8:35 PM 60.8 °F 55.4 °F 82% 30.27 in 8.0 mi South 4.6 mph - N/A   Overcast
8:55 PM 60.8 °F 55.4 °F 82% 30.27 in 8.0 mi Calm Calm - N/A   Mostly Cloudy
9:15 PM 59.0 °F 57.2 °F 94% 30.28 in 7.0 mi Calm Calm - N/A   Overcast
9:35 PM 62.6 °F 53.6 °F 72% 30.28 in 8.0 mi Calm Calm - N/A   Overcast
9:55 PM 60.8 °F 55.4 °F 82% 30.28 in 8.0 mi South 3.5 mph - N/A   Scattered Clouds
10:15 PM 59.0 °F 55.4 °F 88% 30.28 in 7.0 mi SW 3.5 mph - N/A   Scattered Clouds
10:35 PM 59.0 °F 57.2 °F 94% 30.28 in 8.0 mi WSW 3.5 mph - N/A   Partly Cloudy
10:55 PM 59.0 °F 57.2 °F 94% 30.28 in 8.0 mi SW 3.5 mph - N/A   Mostly Cloudy
11:15 PM 59.0 °F 55.4 °F 88% 30.28 in 7.0 mi South 5.8 mph - N/A   Overcast
11:35 PM 59.0 °F 55.4 °F 88% 30.29 in 8.0 mi South 8.1 mph - N/A   Overcast
11:55 PM 59.0 °F 55.4 °F 88% 30.30 in 7.0 mi SSW 16.1 mph - N/A Rain Light Rain